When you browse on this site, cookies collect data to enhance your experience and personalize the content and advertising you see.
Visit our Privacy Policy to learn more. By continuing to use the site, you agree to this use of cookies and data.
  • In Hungary
  • List of Countries
  • For 7 days
  • Water Temperature
  • Satellite Maps
  • Weather Map
  • News
  • Weather Widgets
  • user-avatar
    Login

    Hourly Weather Vivsya

    Today, 18 July, Thursday

    Time Temperature Precipitation Wind Pressure Humidity
    00:00 +11°C° 0 mm 3 mps 730 mmHg 93%
    01:00 +11°C° 0 mm 3 mps 730 mmHg 93%
    02:00 +10°C° 0 mm 3 mps 730 mmHg 93%
    03:00 +10°C° 0 mm 3 mps 730 mmHg 94%
    04:00 +10°C° 0 mm 3 mps 730 mmHg 94%
    05:00 +10°C° 0 mm 3 mps 730 mmHg 95%
    06:00 +11°C° 0 mm 3 mps 730 mmHg 89%
    07:00 +13°C° 0 mm 3 mps 730 mmHg 83%
    08:00 +15°C° 0 mm 4 mps 731 mmHg 77%
    09:00 +17°C° 0 mm 4 mps 731 mmHg 73%
    10:00 +18°C° 0 mm 4 mps 731 mmHg 69%
    11:00 +19°C° 0 mm 4 mps 731 mmHg 65%
    12:00 +20°C° 0 mm 5 mps 731 mmHg 63%
    13:00 +20°C° 0 mm 5 mps 731 mmHg 62%
    14:00 +21°C° 0 mm 5 mps 731 mmHg 61%
    15:00 +21°C° 0 mm 4 mps 731 mmHg 62%
    16:00 +21°C° 0 mm 4 mps 731 mmHg 63%
    17:00 +21°C° 0 mm 4 mps 731 mmHg 64%
    18:00 +19°C° 0 mm 3 mps 731 mmHg 69%
    19:00 +18°C° 0 mm 2 mps 732 mmHg 75%
    20:00 +16°C° 0 mm 2 mps 732 mmHg 80%
    21:00 +16°C° 0 mm 1 mps 732 mmHg 82%
    22:00 +15°C° 0 mm 1 mps 732 mmHg 84%
    23:00 +14°C° 0 mm 1 mps 732 mmHg 86%

    Tomorrow, 19 July, Friday

    Time Temperature Precipitation Wind Pressure Humidity
    00:00 +14°C° 0 mm 1 mps 732 mmHg 87%
    01:00 +14°C° 0 mm 1 mps 733 mmHg 88%
    02:00 +13°C° 0 mm 1 mps 733 mmHg 88%
    03:00 +13°C° 0 mm 1 mps 733 mmHg 88%
    04:00 +13°C° 0 mm 1 mps 733 mmHg 88%
    05:00 +12°C° 0 mm 0 mps 733 mmHg 89%
    06:00 +14°C° 0 mm 0 mps 733 mmHg 83%
    07:00 +16°C° 0 mm 0 mps 734 mmHg 78%
    08:00 +18°C° 0 mm 0 mps 734 mmHg 72%
    09:00 +21°C° 0.1 mm 1 mps 734 mmHg 69%
    10:00 +22°C° 0.1 mm 1 mps 734 mmHg 66%
    11:00 +23°C° 0.1 mm 2 mps 734 mmHg 62%
    12:00 +23°C° 0.3 mm 2 mps 734 mmHg 61%
    13:00 +24°C° 0.3 mm 2 mps 734 mmHg 60%
    14:00 +24°C° 0.3 mm 2 mps 734 mmHg 60%
    15:00 +25°C° 0 mm 1 mps 734 mmHg 58%
    16:00 +25°C° 0 mm 1 mps 734 mmHg 57%
    17:00 +25°C° 0 mm 1 mps 734 mmHg 56%
    18:00 +23°C° 0.2 mm 1 mps 734 mmHg 63%
    19:00 +22°C° 0.2 mm 1 mps 734 mmHg 70%
    20:00 +20°C° 0.2 mm 1 mps 734 mmHg 77%
    21:00 +19°C° 0.2 mm 1 mps 734 mmHg 79%
    22:00 +19°C° 0.2 mm 1 mps 734 mmHg 81%
    23:00 +16°C° 0.2 mm 0 mps 735 mmHg 83%

    Day after tomorrow, 20 July, Saturday

    Time Temperature Precipitation Wind Pressure Humidity
    00:00 +16°C° 0.2 mm 0 mps 735 mmHg 85%
    01:00 +15°C° 0.2 mm 0 mps 735 mmHg 86%
    02:00 +16°C° 0.2 mm 1 mps 735 mmHg 88%
    03:00 +15°C° 0 mm 0 mps 735 mmHg 88%
    04:00 +14°C° 0 mm 0 mps 735 mmHg 89%
    05:00 +14°C° 0 mm 0 mps 735 mmHg 89%
    06:00 +16°C° 0 mm 0 mps 735 mmHg 85%
    07:00 +19°C° 0 mm 1 mps 735 mmHg 81%
    08:00 +21°C° 0 mm 1 mps 735 mmHg 77%
    09:00 +22°C° 0.2 mm 1 mps 736 mmHg 72%
    10:00 +23°C° 0.2 mm 1 mps 736 mmHg 67%
    11:00 +24°C° 0.2 mm 2 mps 736 mmHg 62%
    12:00 +25°C° 0.3 mm 2 mps 736 mmHg 61%
    13:00 +25°C° 0.3 mm 2 mps 736 mmHg 59%
    14:00 +25°C° 0.3 mm 2 mps 736 mmHg 58%
    15:00 +26°C° 0 mm 1 mps 736 mmHg 58%
    16:00 +26°C° 0 mm 1 mps 736 mmHg 57%
    17:00 +26°C° 0 mm 1 mps 736 mmHg 57%
    18:00 +24°C° 0 mm 1 mps 736 mmHg 63%
    19:00 +23°C° 0 mm 1 mps 736 mmHg 68%
    20:00 +21°C° 0 mm 1 mps 736 mmHg 74%
    21:00 +20°C° 0.1 mm 1 mps 736 mmHg 75%
    22:00 +20°C° 0.1 mm 1 mps 736 mmHg 77%
    23:00 +19°C° 0.1 mm 1 mps 737 mmHg 79%

    21 July, Sunday

    Time Temperature Precipitation Wind Pressure Humidity
    00:00 +18°C° 0 mm 1 mps 737 mmHg 81%
    01:00 +17°C° 0 mm 2 mps 736 mmHg 83%
    02:00 +17°C° 0 mm 2 mps 736 mmHg 86%
    03:00 +16°C° 0 mm 2 mps 736 mmHg 86%
    04:00 +16°C° 0 mm 2 mps 736 mmHg 87%
    05:00 +16°C° 0 mm 2 mps 736 mmHg 87%
    06:00 +18°C° 0 mm 2 mps 736 mmHg 83%
    07:00 +19°C° 0 mm 2 mps 736 mmHg 78%
    08:00 +21°C° 0 mm 2 mps 737 mmHg 74%
    09:00 +23°C° 0 mm 2 mps 737 mmHg 71%
    10:00 +25°C° 0 mm 2 mps 737 mmHg 67%
    11:00 +26°C° 0 mm 3 mps 737 mmHg 64%
    12:00 +27°C° 0.1 mm 3 mps 737 mmHg 62%
    13:00 +27°C° 0.1 mm 3 mps 737 mmHg 60%
    14:00 +28°C° 0.1 mm 3 mps 736 mmHg 58%
    15:00 +27°C° 1.6 mm 2 mps 736 mmHg 63%
    16:00 +26°C° 1.6 mm 1 mps 736 mmHg 68%
    17:00 +26°C° 1.6 mm 1 mps 736 mmHg 72%
    18:00 +24°C° 1 mm 1 mps 736 mmHg 77%
    19:00 +23°C° 1 mm 2 mps 736 mmHg 82%
    20:00 +21°C° 1 mm 2 mps 736 mmHg 87%
    21:00 +20°C° 0.3 mm 2 mps 735 mmHg 87%
    22:00 +20°C° 0.3 mm 2 mps 735 mmHg 87%
    23:00 +19°C° 0.3 mm 2 mps 735 mmHg 88%

    22 July, Monday

    Time Temperature Precipitation Wind Pressure Humidity
    00:00 +19°C° 0 mm 2 mps 735 mmHg 89%
    01:00 +19°C° 0 mm 2 mps 735 mmHg 90%
    02:00 +18°C° 0 mm 2 mps 735 mmHg 91%
    03:00 +18°C° 0 mm 2 mps 735 mmHg 91%
    04:00 +18°C° 0 mm 2 mps 735 mmHg 91%
    05:00 +18°C° 0 mm 2 mps 735 mmHg 91%
    06:00 +19°C° 0.1 mm 2 mps 735 mmHg 89%
    07:00 +20°C° 0.1 mm 3 mps 735 mmHg 88%
    08:00 +21°C° 0.1 mm 4 mps 735 mmHg 86%
    09:00 +23°C° 0.1 mm 4 mps 735 mmHg 80%
    10:00 +25°C° 0.1 mm 4 mps 735 mmHg 75%
    11:00 +26°C° 0.1 mm 4 mps 735 mmHg 70%
    12:00 +26°C° 0.9 mm 4 mps 735 mmHg 69%
    13:00 +27°C° 0.9 mm 4 mps 735 mmHg 68%
    14:00 +27°C° 0.9 mm 4 mps 735 mmHg 67%
    15:00 +26°C° 0.1 mm 5 mps 735 mmHg 69%
    16:00 +26°C° 0.1 mm 5 mps 735 mmHg 71%
    17:00 +26°C° 0.1 mm 5 mps 735 mmHg 73%
    18:00 +23°C° 0.1 mm 5 mps 735 mmHg 78%
    19:00 +21°C° 0.1 mm 4 mps 735 mmHg 83%
    20:00 +20°C° 0.1 mm 4 mps 735 mmHg 88%
    21:00 +19°C° 0 mm 4 mps 735 mmHg 90%
    22:00 +18°C° 0 mm 4 mps 735 mmHg 91%
    23:00 +18°C° 0 mm 4 mps 735 mmHg 93%

    23 July, Tuesday

    Time Temperature Precipitation Wind Pressure Humidity
    00:00 +17°C° 0 mm 3 mps 734 mmHg 94%
    01:00 +17°C° 0 mm 3 mps 734 mmHg 95%
    02:00 +17°C° 0 mm 3 mps 734 mmHg 96%
    03:00 +16°C° 0 mm 3 mps 734 mmHg 96%
    04:00 +16°C° 0 mm 3 mps 734 mmHg 96%
    05:00 +16°C° 0 mm 3 mps 734 mmHg 96%
    06:00 +17°C° 0 mm 3 mps 734 mmHg 94%
    07:00 +18°C° 0 mm 4 mps 734 mmHg 91%
    08:00 +19°C° 0 mm 4 mps 734 mmHg 88%
    09:00 +20°C° 0.1 mm 4 mps 734 mmHg 85%
    10:00 +21°C° 0.1 mm 4 mps 734 mmHg 81%
    11:00 +22°C° 0.1 mm 5 mps 734 mmHg 77%
    12:00 +22°C° 1.2 mm 5 mps 734 mmHg 77%
    13:00 +22°C° 1.2 mm 5 mps 734 mmHg 78%
    14:00 +22°C° 1.2 mm 5 mps 734 mmHg 78%
    15:00 +22°C° 0.6 mm 5 mps 734 mmHg 78%
    16:00 +22°C° 0.6 mm 5 mps 734 mmHg 79%
    17:00 +22°C° 0.6 mm 5 mps 734 mmHg 79%
    18:00 +21°C° 0.4 mm 5 mps 734 mmHg 83%
    19:00 +20°C° 0.4 mm 4 mps 734 mmHg 86%
    20:00 +19°C° 0.4 mm 4 mps 734 mmHg 90%
    21:00 +18°C° 0.1 mm 4 mps 734 mmHg 91%
    22:00 +17°C° 0.1 mm 4 mps 734 mmHg 93%
    23:00 +17°C° 0.1 mm 4 mps 734 mmHg 95%
    Show more